Grant County, OR

10:20 PM PDT on March 23, 2017 (GMT -0700)
Grant County Regional

Weather History for KGCD - October, 2012

Change the Weather History Date:

Tuesday, October 9, 2012

  Actual Average (KBNO) Record (KBNO)
Temperature  
Mean Temperature 54 °F -  
Max Temperature 71 °F 64 °F 89 °F (1996)
Min Temperature 37 °F 26 °F 8 °F (1985)
Degree Days  
Heating Degree Days 11    
Growing Degree Days 4 (Base 50)    
Moisture  
Dew Point 21 °F    
Average Humidity 29    
Maximum Humidity 49    
Minimum Humidity 17    
Precipitation  
Precipitation 0.00 in - - ()
Sea Level Pressure  
Sea Level Pressure 30.06 in    
Wind  
Wind Speed 7 mph (SSE)    
Max Wind Speed 14 mph    
Max Gust Speed -    
Visibility 10 miles    
Events      
Averages and records for this station are not official NWS values.
T = Trace of Precipitation, MM = Missing Value Source: NWS Daily Summary

Daily Weather History Graph

Daily Weather History Graph

Search for Another Location

Airport or City:

Trip Planner

Search our weather history database for the weather conditions in past years. The results will help you decide how hot, cold, wet, or windy it might be!

Date:

Astronomy

Oct. 09, 2012 Rise Set
Actual Time 7:04 AM PDT 6:21 PM PDT
Civil Twilight 6:35 AM PDT 6:50 PM PDT
Nautical Twilight 6:01 AM PDT 7:23 PM PDT
Astronomical Twilight 5:27 AM PDT 7:57 PM PDT
Moon 12:32 AM PDT (10/9) 3:03 PM PDT (10/9)
Length of Visible Light 12h 15m
Length of Day
11h 16m
Waning Crescent, 35% of the Moon is Illuminated
Oct 9
Waning Crescent
Oct 15
New
Oct 21
First Quarter
Oct 29
Full
Nov 6
Last Quarter

Hourly Weather History & Observations

Time (PDT) Temp. Windchill Dew Point Humidity Pressure Visibility Wind Dir Wind Speed Gust Speed Precip Events Conditions
12:15 AM 44.6 °F 40.7 °F 14.0 °F 29% 30.03 in 10.0 mi East 6.9 mph - N/A   Clear
12:55 AM 46.4 °F - 14.0 °F 27% 30.03 in 10.0 mi Calm Calm - N/A   Clear
1:15 AM 42.8 °F 37.0 °F 14.0 °F 31% 30.04 in 10.0 mi ESE 10.4 mph - N/A   Clear
1:35 AM 42.8 °F 38.6 °F 14.0 °F 31% 30.05 in 10.0 mi East 6.9 mph - N/A   Clear
1:55 AM 44.6 °F 39.7 °F 14.0 °F 29% 30.05 in 10.0 mi ESE 9.2 mph - N/A   Clear
2:15 AM 42.8 °F 38.6 °F 14.0 °F 31% 30.05 in 10.0 mi East 6.9 mph - N/A   Clear
2:35 AM 42.8 °F 37.0 °F 14.0 °F 31% 30.05 in 10.0 mi ESE 10.4 mph - N/A   Clear
2:55 AM 42.8 °F 37.5 °F 14.0 °F 31% 30.05 in 10.0 mi ESE 9.2 mph - N/A   Clear
3:15 AM 42.8 °F 38.6 °F 14.0 °F 31% 30.05 in 10.0 mi East 6.9 mph - N/A   Clear
3:35 AM 41.0 °F 33.5 °F 14.0 °F 33% 30.05 in 10.0 mi ESE 13.8 mph - N/A   Clear
3:55 AM 41.0 °F 34.7 °F 14.0 °F 33% 30.06 in 10.0 mi ESE 10.4 mph - N/A   Clear
4:15 AM 37.4 °F 32.1 °F 14.0 °F 38% 30.06 in 10.0 mi East 6.9 mph - N/A   Clear
4:35 AM 41.0 °F 34.3 °F 14.0 °F 33% 30.07 in 10.0 mi ESE 11.5 mph - N/A   Clear
4:55 AM 41.0 °F 36.4 °F 14.0 °F 33% 30.07 in 10.0 mi East 6.9 mph - N/A   Clear
5:15 AM 37.4 °F 30.8 °F 14.0 °F 38% 30.07 in 10.0 mi SE 9.2 mph - N/A   Clear
5:55 AM 37.4 °F 31.4 °F 14.0 °F 38% 30.08 in 10.0 mi ESE 8.1 mph - N/A   Clear
6:15 AM 37.4 °F 30.8 °F 14.0 °F 38% 30.08 in 10.0 mi ESE 9.2 mph - N/A   Clear
6:35 AM 37.4 °F 30.8 °F 14.0 °F 38% 30.09 in 10.0 mi ESE 9.2 mph - N/A   Clear
6:55 AM 37.4 °F 31.4 °F 14.0 °F 38% 30.09 in 10.0 mi East 8.1 mph - N/A   Clear
7:15 AM 37.4 °F 30.8 °F 14.0 °F 38% 30.10 in 10.0 mi ESE 9.2 mph - N/A   Clear
7:35 AM 39.2 °F 33.0 °F 14.0 °F 36% 30.10 in 10.0 mi East 9.2 mph - N/A   Clear
7:55 AM 41.0 °F 34.3 °F 14.0 °F 33% 30.10 in 10.0 mi SE 11.5 mph - N/A   Clear
8:15 AM 42.8 °F 38.6 °F 14.0 °F 31% 30.10 in 10.0 mi ESE 6.9 mph - N/A   Clear
8:35 AM 42.8 °F 38.0 °F 15.8 °F 34% 30.10 in 10.0 mi ESE 8.1 mph - N/A   Clear
8:55 AM 44.6 °F 42.2 °F 15.8 °F 31% 30.10 in 10.0 mi East 4.6 mph - N/A   Clear
9:15 AM 46.4 °F - 15.8 °F 29% 30.10 in 10.0 mi Calm Calm - N/A   Clear
9:35 AM 50.0 °F - 17.6 °F 28% 30.10 in 10.0 mi Calm Calm - N/A   Clear
9:55 AM 50.0 °F - 17.6 °F 28% 30.10 in 10.0 mi Calm Calm - N/A   Clear
10:15 AM 53.6 °F - 15.8 °F 22% 30.10 in 10.0 mi Calm Calm - N/A   Clear
10:35 AM 53.6 °F - 15.8 °F 22% 30.10 in 10.0 mi West 4.6 mph - N/A   Clear
10:55 AM 55.4 °F - 15.8 °F 21% 30.10 in 10.0 mi WSW 3.5 mph - N/A   Clear
11:15 AM 57.2 °F - 15.8 °F 20% 30.09 in 10.0 mi West 4.6 mph - N/A   Clear
11:35 AM 59.0 °F - 15.8 °F 19% 30.09 in 10.0 mi WNW 4.6 mph - N/A   Clear
11:55 AM 60.8 °F - 17.6 °F 19% 30.09 in 10.0 mi NW 6.9 mph - N/A   Clear
12:15 PM 60.8 °F - 17.6 °F 19% 30.08 in 10.0 mi West 6.9 mph - N/A   Clear
12:35 PM 62.6 °F - 17.6 °F 18% 30.08 in 10.0 mi WNW 6.9 mph - N/A   Clear
12:55 PM 62.6 °F - 19.4 °F 19% 30.07 in 10.0 mi West 6.9 mph - N/A   Clear
1:15 PM 64.4 °F - 19.4 °F 18% 30.06 in 10.0 mi West 8.1 mph - N/A   Clear
1:35 PM 66.2 °F - 21.2 °F 18% 30.06 in 10.0 mi West 8.1 mph - N/A   Clear
1:55 PM 68.0 °F - 24.8 °F 20% 30.05 in 10.0 mi WNW 6.9 mph - N/A   Clear
2:15 PM 68.0 °F - 26.6 °F 21% 30.05 in 10.0 mi WNW 6.9 mph - N/A   Clear
2:35 PM 68.0 °F - 26.6 °F 21% 30.04 in 10.0 mi WNW 6.9 mph - N/A   Clear
2:55 PM 69.8 °F - 26.6 °F 20% 30.04 in 10.0 mi West 4.6 mph - N/A   Clear
3:15 PM 69.8 °F - 23.0 °F 17% 30.03 in 10.0 mi WSW 5.8 mph - N/A   Clear
3:35 PM 69.8 °F - 23.0 °F 17% 30.03 in 10.0 mi West 4.6 mph - N/A   Clear
3:55 PM 71.6 °F - 24.8 °F 17% 30.02 in 10.0 mi West 6.9 mph - N/A   Clear
4:15 PM 71.6 °F - 24.8 °F 17% 30.01 in 10.0 mi NW 8.1 mph - N/A   Clear
4:35 PM 69.8 °F - 24.8 °F 18% 30.01 in 10.0 mi West 8.1 mph - N/A   Clear
4:55 PM 69.8 °F - 24.8 °F 18% 30.01 in 10.0 mi West 8.1 mph - N/A   Clear
5:15 PM 69.8 °F - 24.8 °F 18% 30.01 in 10.0 mi West 8.1 mph - N/A   Clear
5:35 PM 68.0 °F - 26.6 °F 21% 30.01 in 10.0 mi West 8.1 mph - N/A   Clear
5:55 PM 68.0 °F - 26.6 °F 21% 30.01 in 10.0 mi West 8.1 mph - N/A   Clear
6:15 PM 64.4 °F - 26.6 °F 24% 30.01 in 10.0 mi West 8.1 mph - N/A   Clear
6:35 PM 62.6 °F - 26.6 °F 26% 30.02 in 10.0 mi West 4.6 mph - N/A   Clear
6:55 PM 62.6 °F - 28.4 °F 27% 30.02 in 10.0 mi WNW 3.5 mph - N/A   Clear
7:15 PM 62.6 °F - 30.2 °F 30% 30.02 in 10.0 mi NW 3.5 mph - N/A   Clear
7:35 PM 62.6 °F - 30.2 °F 30% 30.03 in 10.0 mi North 4.6 mph - N/A   Clear
7:55 PM 60.8 °F - 30.2 °F 31% 30.04 in 10.0 mi NNW 4.6 mph - N/A   Clear
8:15 PM 59.0 °F - 28.4 °F 31% 30.04 in 10.0 mi West 5.8 mph - N/A   Clear
8:35 PM 59.0 °F - 28.4 °F 31% 30.05 in 10.0 mi WNW 3.5 mph - N/A   Clear
8:55 PM 55.4 °F - 28.4 °F 36% 30.05 in 10.0 mi Calm Calm - N/A   Clear
9:15 PM 55.4 °F - 30.2 °F 38% 30.05 in 10.0 mi NNW 4.6 mph - N/A   Clear
9:35 PM 55.4 °F - 30.2 °F 38% 30.05 in 10.0 mi Calm Calm - N/A   Clear
9:55 PM 55.4 °F - 30.2 °F 38% 30.05 in 10.0 mi Calm Calm - N/A   Clear
10:15 PM 53.6 °F - 28.4 °F 38% 30.05 in 10.0 mi East 5.8 mph - N/A   Clear
10:35 PM 51.8 °F - 28.4 °F 41% 30.06 in 10.0 mi ESE 8.1 mph - N/A   Clear
10:55 PM 50.0 °F - 28.4 °F 43% 30.06 in 10.0 mi East 5.8 mph - N/A   Clear
11:15 PM 50.0 °F - 26.6 °F 40% 30.06 in 10.0 mi East 4.6 mph - N/A   Clear
11:35 PM 48.2 °F - 26.6 °F 43% 30.06 in 10.0 mi East 5.8 mph - N/A   Clear
11:55 PM 44.6 °F 40.2 °F 26.6 °F 49% 30.06 in 10.0 mi East 8.1 mph - N/A   Clear